Russellville, AR

1:11 PM CST on December 09, 2019 (GMT -0600)
Russellville Regional

Weather History for KRUE - July, 2019

Change the Weather History Date:

Monday, July 22, 2019

  Actual Average (KHOT) Record (KHOT)
Temperature  
Mean Temperature 74 °F -  
Max Temperature 82 °F 95 °F 105 °F (1974)
Min Temperature 68 °F 69 °F 56 °F (1970)
Cooling Degree Days 10    
Growing Degree Days 24 (Base 50)    
Moisture  
Dew Point 73 °F    
Average Humidity 89    
Maximum Humidity 100    
Minimum Humidity 62    
Precipitation  
Precipitation 0.70 in - - ()
Sea Level Pressure  
Sea Level Pressure 29.97 in    
Wind  
Wind Speed 4 mph (NW)    
Max Wind Speed 13 mph    
Max Gust Speed 24 mph    
Visibility 7 miles    
Events Rain    
Averages and records for this station are not official NWS values.
T = Trace of Precipitation, MM = Missing Value Source: NWS Daily Summary

Daily Weather History Graph

Daily Weather History Graph

Search for Another Location

Airport or City:

Astronomy

Jul. 22, 2019 Rise Set
Actual Time 6:13 AM CDT 8:23 PM CDT
Civil Twilight 5:45 AM CDT 8:52 PM CDT
Nautical Twilight 5:10 AM CDT 9:27 PM CDT
Astronomical Twilight 4:32 AM CDT 10:04 PM CDT
Moon 11:56 PM CDT (7/22) 11:20 AM CDT (7/22)
Length of Visible Light 15h 07m
Length of Day
14h 09m
Waning Gibbous, 72% of the Moon is Illuminated
Jul 22
Waning Gibbous
Jul 24
Last Quarter
Jul 31
New
Aug 7
First Quarter
Aug 15
Full

Hourly Weather History & Observations

Time (CDT) Temp. Heat Index Dew Point Humidity Pressure Visibility Wind Dir Wind Speed Gust Speed Precip Events Conditions
12:53 AM 75.9 °F - 75.9 °F 100% 29.88 in 10.0 mi SSE 3.5 mph - N/A   Clear
1:53 AM 77.0 °F - 75.0 °F 94% 29.89 in 10.0 mi NNW 3.5 mph - N/A   Clear
2:53 AM 79.0 °F - 75.9 °F 90% 29.90 in 10.0 mi Calm Calm - N/A   Clear
3:53 AM 80.1 °F 83.6 °F 71.1 °F 74% 29.89 in 10.0 mi Variable 6.9 mph - N/A   Clear
4:53 AM 78.1 °F - 69.1 °F 74% 29.91 in 10.0 mi WNW 4.6 mph - N/A   Clear
5:53 AM 77.0 °F - 69.1 °F 76% 29.93 in 10.0 mi NNW 6.9 mph - N/A   Overcast
6:53 AM 75.0 °F - 72.0 °F 90% 29.93 in 10.0 mi Calm Calm - 0.00 in   Mostly Cloudy
7:53 AM 75.0 °F - 71.1 °F 87% 29.97 in 10.0 mi WSW 3.5 mph - N/A   Partly Cloudy
8:53 AM 78.1 °F - 71.1 °F 79% 29.97 in 10.0 mi Calm Calm - N/A   Mostly Cloudy
9:53 AM 79.0 °F - 71.1 °F 77% 29.96 in 10.0 mi Calm Calm - N/A   Mostly Cloudy
10:34 AM 79.0 °F - 72.0 °F 79% 29.99 in 10.0 mi WSW 4.6 mph - N/A   Overcast
10:53 AM 77.0 °F - 73.0 °F 88% 29.97 in 5.0 mi WSW 5.8 mph - 0.01 in Rain Light Rain
11:05 AM 75.9 °F - 73.0 °F 91% 30.00 in 10.0 mi WSW 3.5 mph - 0.00 in   Overcast
11:13 AM 75.9 °F - 73.0 °F 91% 30.00 in 1.5 mi West 4.6 mph - 0.06 in Rain Heavy Rain
11:26 AM 75.0 °F - 73.0 °F 94% 30.00 in 4.0 mi NW 4.6 mph - 0.12 in Rain Light Rain
11:53 AM 77.0 °F - 73.9 °F 90% 29.98 in 10.0 mi NW 4.6 mph - 0.12 in   Overcast
12:53 PM 78.1 °F - 73.9 °F 87% 29.97 in 10.0 mi Calm Calm - N/A   Overcast
1:09 PM 77.0 °F - 73.9 °F 90% 29.99 in 3.0 mi West 5.8 mph - 0.01 in Rain Light Rain
1:12 PM 75.9 °F - 73.9 °F 94% 29.99 in 1.8 mi WNW 6.9 mph - 0.05 in Rain Heavy Rain
1:30 PM 75.0 °F - 73.9 °F 96% 29.99 in 0.8 mi Calm Calm - 0.21 in Rain Heavy Rain
1:33 PM 75.0 °F - 73.9 °F 96% 29.99 in 1.0 mi West 3.5 mph - 0.23 in Rain Heavy Rain
1:39 PM 75.0 °F - 75.0 °F 100% 29.99 in 3.0 mi WNW 5.8 mph - 0.23 in Rain Light Rain
1:53 PM 75.0 °F - 75.0 °F 100% 29.97 in 2.0 mi WNW 3.5 mph - 0.24 in Rain Light Rain
2:00 PM 75.0 °F - 75.0 °F 100% 29.99 in 3.0 mi WNW 4.6 mph - 0.00 in Rain Light Rain
2:08 PM 75.0 °F - 75.0 °F 100% 29.99 in 2.5 mi NW 4.6 mph - 0.01 in Rain Light Rain
2:15 PM 75.9 °F - 75.0 °F 97% 29.98 in 1.8 mi NW 5.8 mph - 0.01 in Rain Light Rain
2:41 PM 75.9 °F - 75.0 °F 97% 29.98 in 2.0 mi NW 5.8 mph - 0.09 in Rain Light Rain
2:49 PM 75.2 °F - 75.2 °F 100% 29.98 in 6.0 mi NW 5.8 mph - 0.10 in Rain Light Rain
2:53 PM 75.9 °F - 75.0 °F 97% 29.95 in 7.0 mi NNW 4.6 mph - 0.10 in Rain Light Rain
3:53 PM 81.0 °F 86.7 °F 75.0 °F 82% 29.94 in 10.0 mi Variable 3.5 mph - 0.00 in   Overcast
4:17 PM 77.0 °F - 73.9 °F 90% 29.97 in 2.5 mi North 12.7 mph 24.2 mph 0.02 in Rain Heavy Rain
4:22 PM 75.0 °F - 73.9 °F 96% 29.96 in 0.8 mi North 10.4 mph 24.2 mph 0.06 in Rain Heavy Rain
4:30 PM 77.0 °F - 75.0 °F 94% 29.96 in 2.0 mi North 8.1 mph - 0.13 in Rain Light Rain
4:37 PM 78.1 °F - 75.9 °F 93% 29.96 in 10.0 mi North 9.2 mph - 0.19 in   Overcast
4:51 PM 78.8 °F - 73.4 °F 83% 29.96 in 10.0 mi NNE 12.7 mph 23.0 mph 0.23 in   Overcast
4:53 PM 78.1 °F - 73.0 °F 84% 29.94 in 10.0 mi NNE 11.5 mph 23.0 mph 0.23 in   Overcast
5:53 PM 80.1 °F 83.6 °F 71.1 °F 74% 29.96 in 10.0 mi NNE 6.9 mph - N/A   Overcast
6:53 PM 81.0 °F 83.3 °F 66.9 °F 62% 29.98 in 10.0 mi NNE 11.5 mph - N/A   Overcast
7:53 PM 79.0 °F - 66.9 °F 66% 29.99 in 10.0 mi NNE 5.8 mph - N/A   Clear
8:53 PM 71.1 °F - 70.0 °F 96% 30.01 in 10.0 mi Calm Calm - N/A   Clear
9:53 PM 70.0 °F - 69.1 °F 97% 30.02 in 10.0 mi Calm Calm - N/A   Clear
10:53 PM 68.0 °F - 68.0 °F 100% 30.03 in 10.0 mi Calm Calm - N/A   Clear
11:53 PM 68.0 °F - 68.0 °F 100% 30.05 in 10.0 mi Calm Calm - N/A   Clear